"Pseudo-MPEC" for 2010-042S = NORAD 40165 = deb CZ-3B

Created 2018 Aug 12 13:52:10 UT using Find_Orb

Click here for an explanation of pseudo-MPECs

 
 Astrometry: 
2010-042S    tC2018 08 11.21306 23 50 21.52 -05 47 56.4          15.6 Rq     Y00
2010-042S    tC2018 08 11.21402 23 50 46.99 -05 52 33.7          15.7 Rq     Y00
2010-042S    tC2018 08 11.21506 23 51 14.48 -05 57 30.2          16.0 Rq     Y00
2010-042S    tC2018 08 12.22937 23 33 28.58 -04 20 51.2          15.0 Rq     Y00
2010-042S    tC2018 08 12.23102 23 34 11.69 -04 28 57.0          14.9 Rq     Y00
2010-042S    tC2018 08 12.23231 23 34 45.31 -04 35 14.4          14.9 Rq     Y00

Station data:
(Y00) SONEAR Observatory, Oliveira  (S20.715082 W44.784960)  Brazil.
   Observers C. Jacques, E. Pimentel, J. Barros. Measurer C. Jacques. 0.28-m
   f/2.2 astrograph + CCD.

Orbital elements:  2010-042S = NORAD 40165 = deb CZ-3B
   Perigee 2018 Aug 11.961611 +/- 0.00383 TT = 23:04:43 (JD 2458342.461611)
Epoch 2018 Aug 12.0 TT = JDT 2458342.5                        Gray
M  26.653980 +/- 2.6                (J2000 equator)
n 694.305643053 +/- 0.078           Peri.   12.601987 +/- 0.6
a 27262.75303 +/- 2.04              Node   161.488409 +/- 0.0051
e   0.73296786 +/- 0.000914         Incl.   27.853514 +/- 0.07
P 746.63m/0.518d           H 32.2   G  0.15   U 11.0  
q 7280.031233 +/- 24.4    Q 47245.47484 +/- 28
From 6 observations 2018 Aug. 11-12 (24.5 hr); mean residual 6".059
Residuals in arcseconds: 
180811 Y00 11.5+ 8.41-    180811 Y00 11.6- 9.17+    180812 Y00 .083+ .244-    
180811 Y00 1.54+ 1.88-    180812 Y00 1.04+ .559-    180812 Y00 2.58- 1.92+    

Ephemerides (geocentric):
Date (UTC) HH   RA              Dec         delta  elong  mag " sig PA
---- -- -- --  -------------   -----------  ------ -----  --- ---- ---
2018 08 12 00  19 38 44.955   +21 03 49.11   18942 135.3 14.4 8153 107
2018 08 12 01  21 15 26.813   +11 29 11.97   29957 153.3 14.9 2084 112
2018 08 12 02  22 01 52.178   +05 45 44.81   37567 157.3 15.3  724 111
2018 08 12 03  22 33 58.021   +01 34 32.43   42708 156.4 15.6  231 105
2018 08 12 04  23 00 12.855   -01 53 21.89   45836 153.4 15.8 43.5  80
2018 08 12 05  23 24 04.947   -05 00 32.86   47172 149.4 16.0 4.99  46
2018 08 12 06  23 47 40.917   -08 00 45.39   46799 144.8 16.1 90.8 127
2018 08 12 07  00 12 57.318   -11 05 18.37   44694 139.4 16.2  315 123
2018 08 12 08  00 42 37.124   -14 27 04.20   40720 132.8 16.2  759 119
2018 08 12 09  01 22 10.101   -18 25 28.75   34573 123.9 16.1 1690 114
2018 08 12 10  02 28 06.508   -23 33 09.82   25627 109.2 15.8 4258 107
2018 08 12 11  05 39 29.467   -27 12 40.83   12732  69.5 16.0 336'  84
2018 08 12 12  17 44 40.619   +27 03 38.49   12670 111.5 14.2 376'  96
2018 08 12 13  20 44 21.567   +14 54 46.38   25583 148.3 14.7 3753 112
2018 08 12 14  21 44 17.254   +07 55 37.02   34543 156.8 15.1 1262 112
2018 08 12 15  22 21 03.381   +03 12 17.67   40701 157.6 15.4  475 110
2018 08 12 16  22 49 18.239   -00 31 07.36   44682 155.3 15.7  165 105
2018 08 12 17  23 13 55.345   -03 45 25.82   46795 151.7 15.9 61.7 104
2018 08 12 18  23 37 24.931   -06 47 11.07   47175 147.4 16.1 94.2 121
2018 08 12 19  00 01 41.629   -09 48 14.11   45846 142.3 16.1  257 123
2018 08 12 20  00 28 59.347   -13 00 14.71   42726 136.3 16.2  596 120
2018 08 12 21  01 03 09.332   -16 38 51.80   37594 128.6 16.1 1274 116
2018 08 12 22  01 53 46.344   -21 10 12.29   29996 117.2 15.9 2880 111
2018 08 12 23  03 40 21.703   -26 54 36.77   18998  94.3 15.7 9035  99
2018 08 13 00  12 25 52.036   +12 40 17.86    7384  42.8 17??  19d  65
2018 08 13 01  19 56 55.228   +19 28 26.02   20422 138.8 14.5 7408 109
2018 08 13 02  21 22 40.623   +10 30 37.48   30978 154.6 14.9 2125 113
2018 08 13 03  22 06 34.727   +05 01 21.60   38270 158.2 15.3  825 112
2018 08 13 04  22 37 42.853   +00 56 37.34   43164 157.1 15.6  338 109
2018 08 13 05  23 03 33.069   -02 28 00.28   46079 153.9 15.8  149 108
2018 08 13 06  23 27 17.937   -05 33 37.45   47217 149.9 16.0  122 116
2018 08 13 07  23 51 00.106   -08 33 28.51   46649 145.1 16.1  227 121
2018 08 13 08  00 16 38.314   -11 38 49.16   44340 139.6 16.2  483 120
2018 08 13 09  00 47 06.344   -15 02 52.46   40137 132.7 16.1  992 118
2018 08 13 10  01 28 30.617   -19 05 59.59   33710 123.3 16.0 2085 113
2018 08 13 11  02 40 14.232   -24 20 45.17   24379 107.4 15.8 5264 106
2018 08 13 12  06 32 42.396   -25 13 44.85   11046  59.0 16?? 478'  78
2018 08 13 13  18 26 06.815   +25 31 01.34   14357 119.6 14.3 306' 101
2018 08 13 14  20 54 12.326   +13 43 59.80   26783 150.1 14.8 3653 112
2018 08 13 15  21 49 46.837   +07 06 22.34   35374 157.8 15.1 1345 113
2018 08 13 16  22 25 07.591   +02 32 02.88   41259 158.4 15.5  579 112
2018 08 13 17  22 52 46.573   -01 06 56.57   45016 155.9 15.7  273 110
2018 08 13 18  23 17 09.851   -04 19 00.84   46926 152.2 15.9  177 113
2018 08 13 19  23 40 39.911   -07 19 53.47   47111 147.8 16.1  223 119
2018 08 13 20  00 05 10.977   -10 21 11.46   45584 142.6 16.1  409 120
2018 08 13 21  00 33 03.136   -13 34 43.76   42248 136.3 16.1  796 118
2018 08 13 22  01 08 28.655   -17 16 46.88   36863 128.3 16.1 1580 115
2018 08 13 23  02 02 23.680   -21 54 32.42   28937 116.1 15.9 3505 110
2018 08 14 00  04 03 47.727   -27 29 52.29   17461  90.1 15.7 194'  96
2018 08 14 01  14 16 36.291   +22 55 26.05    8211  67.0 15.3  18d  74